Location: Clandonald
(53.5720°N, 110.7141°W)
Time: 07:59:49
(UTC+00:00)

Envisat - Pass Details

Date: 01 November 2019
Orbit: 764 x 766 km, 98.1° (Epoch: 12 November)

Event Time Altitude Azimuth Distance (km) Brightness Sun altitude
Rises 01:43:39 0° 180° (S) 3,222 6.3 -16.9°
Reaches altitude 10° 01:46:01 10° 186° (S) 2,300 5.6 -17.3°
Maximum altitude 01:50:55 48° 261° (W) 995 4.0 -18.0°
Drops below altitude 10° 01:55:51 10° 336° (NNW) 2,315 5.8 -18.8°
Sets 01:58:15 0° 342° (NNW) 3,246 6.5 -19.1°
